Location: Borgo
(42.3939°N, 9.2791°E)
Time: 14:54:27
(UTC+00:00)

STARLINK-1061 - Pass Details

Date: 27 February 2020
Orbit: 548 x 551 km, 53.0° (Epoch: 28 March)

Event Time Altitude Azimuth Distance (km) Brightness Sun altitude
Rises 17:41:59 0° 230° (SW) 2,703 8.2 -6.8°
Reaches altitude 10° 17:44:12 10° 229° (SW) 1,813 7.2 -7.2°
Maximum altitude 17:48:19 83° 143° (SE) 556 3.6 -7.9°
Drops below altitude 10° 17:52:28 10° 55° (NE) 1,824 5.8 -8.7°
Enters shadow 17:52:58 - 54° (NE) 2,019 6.0 -8.8°
